Regional Weather Roundup
Issued by NWS

Home | Current Version | Previous Version | Text Only | Print | Product List | Glossary On
Versions: 1 2 3 4 5 6 7 8 9 10 11 12 13 14 15 16 17 18 19 20 21 22 23 24 25 26 27 28 29 30 31 32 33 34 35 36 37 38 39 40 41 42 43 44 45 46 47 48 49 50
000
ASUS44 KFWD 170503
RWRTX
NORTH TEXAS HOURLY WEATHER ROUNDUP
NATIONAL WEATHER SERVICE FORT WORTH TX
1200 AM CDT THU APR 17 2014

NOTE: "FAIR" INDICATES FEW OR NO CLOUDS BELOW 12,000 FEET WITH NO
SIGNIFICANT WEATHER AND/OR OBSTRUCTIONS TO VISIBILITY.

TXZ118-119-170600-
DALLAS/FORT WORTH METROPLEX

CITY           SKY/WX    TMP DP  RH WIND       PRES   REMARKS
DFW AIRPORT    PTCLDY    56  41  57 SE16G22   30.01R
DALLAS LOVE    PTCLDY    57  39  51 SE17      30.02S
FTW MEACHAM    CLEAR     56  45  66 SE13      29.99S
DAL-EXECUTIVE  CLEAR     54  41  61 SE10      30.01S
FTW-ALLIANCE   CLEAR     54  42  64 SE10      30.00R
FTW-NAS-JRB    CLEAR     60  42  51 E8        30.04S
FTW-SPINKS     CLEAR     55  44  68 SE9       30.02S
ARLINGTON      CLEAR     55  43  63 SE9       30.01S
GRAND PRAIRIE  CLEAR     54  41  62 SE8       30.04S
ADDISON        CLEAR     58  39  49 SE12G21   30.04R
MESQUITE       CLEAR     53  38  57 SE8       30.04R
LANCASTER      CLEAR     52  40  64 SE7       30.04S
$$

TXZ091>094-102>105-117-120-121-131>134-170600-
NORTH CENTRAL TEXAS

CITY           SKY/WX    TMP DP  RH WIND       PRES   REMARKS
SHRMAN/DENISON CLEAR     51  37  59 E7        30.06R
GAINESVILLE    CLEAR     52  41  66 E7        30.05R
BOWIE          CLEAR     55  44  67 E6        30.00R
BRIDGEPORT     CLEAR     56  43  61 SE6       30.00R
DECATUR        CLEAR     53  42  66 E9        30.00R
DENTON         CLEAR     56  41  57 SE10      30.01R
MCKINNEY       CLEAR     54  40  59 SE8       30.04R
GREENVILLE     CLEAR     50  37  62 SE3       30.05R
ROCKWALL       CLEAR     52  40  64 E8        30.03R
TERRELL        CLEAR     52  39  61 E7        30.05R
WAXAHACHIE     CLEAR     50  42  73 E5        30.04R
CLEBURNE       CLEAR     55  45  67 SE12G18   30.02S
GRANBURY       CLEAR     59  46  63 SE12      29.99F
$$

TXZ083>090-098>101-113>116-127>130-139>142-154-155-170600-
WESTERN NORTH TEXAS

CITY           SKY/WX    TMP DP  RH WIND       PRES   REMARKS
WICHITA FALLS  PTCLDY    54  41  61 E13       29.96R
WF-KICKAPOO    PTCLDY    56  41  56 E12       29.97R
VERNON         PTCLDY    58  36  43 E14       29.93R
ABILENE        CLEAR     60  36  40 SE12      29.90R
ABILENE-DYESS  CLEAR     62  37  40 SE16G24   29.88R
BRECKENRIDGE   CLEAR     61  41  48 SE12G18   29.92R
MINERAL WELLS  CLEAR     57  45  64 SE15      29.95S
STEPHENVILLE   CLEAR     56  46  68 SE9       29.99S
COMANCHE       CLEAR     58  46  64 SE12      29.95S
BROWNWOOD      MOCLDY    59  46  63 SE14G20   29.94R
BRADY          CLEAR     55  39  54 E6        29.92F
$$

TXZ143>147-156>162-174-175-170600-
CENTRAL TEXAS

CITY           SKY/WX    TMP DP  RH WIND       PRES   REMARKS
WACO           CLEAR     54  46  74 SE8       30.01R
WACO-MCGREGOR  CLEAR     55  45  67 SE8       30.02R
HILLSBORO      CLEAR     55  44  67 E12       30.02R
CORSICANA      CLEAR     53  42  66 SE7       30.05R
MEXIA          CLEAR     52  44  74 E5        30.04R
HEARNE         CLOUDY    57  49  75 SE7       30.03S
CAMERON        CLOUDY    58  50  74 S9        30.02R
TEMPLE         PTCLDY    55  45  67 SE9       30.03R
KILLEEN        CLEAR     57  46  67 SE15      29.99R
KILLEEN-SKYLRK PTCLDY    57  45  62 SE13      29.99R
GATESVILLE     CLEAR     57  46  67 SE7       30.01R
HAMILTON       CLEAR     57  46  67 SE14G21   29.98R
LAMPASAS       PTCLDY    58  49  72 S12       29.97R
$$

TXZ095>097-106>112-122>126-135>138-148>153-164>167-170600-
EAST TEXAS

CITY           SKY/WX    TMP DP  RH WIND       PRES   REMARKS
PARIS          CLEAR     46  36  66 E8        30.08S
SULPHUR SPRNGS CLEAR     50  37  61 SE6       30.09R
CLARKSVILLE    CLEAR     50  36  58 E3        30.09R
MOUNT PLEASANT CLEAR     49  37  63 SE3       30.10S
MINEOLA        CLEAR     45  39  81 CALM      30.08S
TYLER          CLEAR     51  38  60 SE8       30.07R
LONGVIEW       CLEAR     49  40  71 CALM      30.08R
ATHENS         CLEAR     45  41  87 CALM      30.06R
PALESTINE      CLEAR     56  43  62 E5        30.08R
JACKSONVILLE   CLEAR     52  42  69 SE5       30.09R
NACOGDOCHES    CLEAR     50  43  76 SE5       30.09R
LUFKIN         PTCLDY    54  46  74 SE7       30.08R
$$

SUPPLEMENTAL OBSERVATIONS (CENTRAL)

CITY           SKY/WX    TMP DP  RH WIND       PRES   REMARKS
$$

SUPPLEMENTAL OBSERVATIONS (WEST)

CITY           SKY/WX    TMP DP  RH WIND       PRES   REMARKS
$$

SUPPLEMENTAL OBSERVATIONS (EAST)

CITY           SKY/WX    TMP DP  RH WIND       PRES   REMARKS
$$

SUPPLEMENTAL OBSERVATIONS ARE A COLLECTION OF AUTOMATED INSTRUMENTS
THAT ARE MAINTAINED BY A VARIETY OF FEDERAL AND STATE AGENCIES.
CERTAIN ELEMENTS...SUCH AS HUMIDITY VALUES AND SUSTAINED WIND
SPEEDS...MAY BE APPROXIMATED.




USA.gov is the U.S. government's official web portal to all federal, state and local government web resources and services.